Weather History for KDHN - October, 2013

Change the Weather History Date:

Thursday, October 31, 2013

  Actual Average Record
Temperature  
Mean Temperature 71 °F 63 °F  
Max Temperature 82 °F 76 °F 89 °F (1950)
Min Temperature 59 °F 51 °F 32 °F (1954)
Degree Days  
Heating Degree Days 0 4  
Month to date heating degree days 41 56  
Since 1 July heating degree days 41 59  
Cooling Degree Days 6 2  
Month to date cooling degree days 149 135  
Year to date cooling degree days 2287 2363  
Growing Degree Days 20 (Base 50)    
Moisture  
Dew Point 63 °F    
Average Humidity 79    
Maximum Humidity 96    
Minimum Humidity 56    
Precipitation  
Precipitation 0.14 in 0.12 in 7.37 in (1932)
Month to date precipitation 0.62 3.41  
Year to date precipitation 66.83 45.39  
Sea Level Pressure  
Sea Level Pressure 30.03 in    
Wind  
Wind Speed 8 mph (SSE)    
Max Wind Speed 17 mph    
Max Gust Speed 23 mph    
Visibility 10 miles    
Events Rain    
T = Trace of Precipitation, MM = Missing Value Source: NWS Daily Summary

Daily Weather History Graph

Daily Weather History Graph

Search for Another Location

Airport or City:

Trip Planner

Search our weather history database for the weather conditions in past years. The results will help you decide how hot, cold, wet, or windy it might be!

Date:

Astronomy

Oct. 31, 2013 Rise Set
Actual Time 6:56 AM CDT 5:53 PM CDT
Civil Twilight 6:31 AM CDT 6:18 PM CDT
Nautical Twilight 6:03 AM CDT 6:47 PM CDT
Astronomical Twilight 5:34 AM CDT 7:15 PM CDT
Moon 3:56 AM CDT (10/31) 4:02 PM CDT (10/31)
Length of Visible Light 11h 46m
Length of Day
10h 56m
Waning Crescent, 10% of the Moon is Illuminated
Oct 31
Waning Crescent
Nov 3
New
Nov 9
First Quarter
Nov 17
Full
Nov 25
Last Quarter

Hourly Weather History & Observations

Time (CDT) Temp. Heat Index Dew Point Humidity Pressure Visibility Wind Dir Wind Speed Gust Speed Precip Events Conditions
12:53 AM 61.0 °F - 54.0 °F 78% 30.16 in 10.0 mi ESE 4.6 mph - N/A   Clear
1:53 AM 61.0 °F - 53.1 °F 75% 30.15 in 10.0 mi SE 3.5 mph - N/A   Clear
2:53 AM 62.1 °F - 54.0 °F 75% 30.14 in 10.0 mi East 3.5 mph - N/A   Clear
3:53 AM 60.1 °F - 55.0 °F 83% 30.13 in 10.0 mi SE 5.8 mph - N/A   Clear
4:53 AM 60.1 °F - 55.9 °F 86% 30.12 in 10.0 mi SE 4.6 mph - N/A   Clear
5:53 AM 60.1 °F - 57.0 °F 90% 30.12 in 10.0 mi SE 5.8 mph - N/A   Clear
6:53 AM 61.0 °F - 59.0 °F 93% 30.11 in 10.0 mi SE 6.9 mph - N/A   Clear
7:53 AM 64.0 °F - 61.0 °F 90% 30.11 in 10.0 mi SE 10.4 mph - N/A   Clear
8:15 AM 66.2 °F - 62.6 °F 88% 30.12 in 10.0 mi SE 10.4 mph - N/A   Scattered Clouds
8:53 AM 69.1 °F - 64.0 °F 84% 30.11 in - SE 10.4 mph - N/A   Partly Cloudy
9:53 AM 73.9 °F - 64.9 °F 73% 30.10 in 10.0 mi SSE 16.1 mph 21.9 mph N/A   Partly Cloudy
10:53 AM 78.1 °F - 66.0 °F 66% 30.10 in 10.0 mi SSE 17.3 mph - N/A   Partly Cloudy
11:53 AM 78.1 °F - 64.9 °F 64% 30.08 in 10.0 mi South 15.0 mph - N/A   Overcast
12:53 PM 78.1 °F - 64.0 °F 62% 30.04 in 10.0 mi South 13.8 mph - N/A   Overcast
1:53 PM 80.1 °F 81.9 °F 64.9 °F 60% 30.01 in 10.0 mi SSE 13.8 mph - N/A   Mostly Cloudy
2:53 PM 80.1 °F 81.5 °F 63.0 °F 56% 29.98 in 10.0 mi South 15.0 mph - N/A   Mostly Cloudy
3:53 PM 79.0 °F - 63.0 °F 58% 29.96 in 10.0 mi South 11.5 mph - N/A   Mostly Cloudy
4:53 PM 78.1 °F - 63.0 °F 60% 29.96 in 10.0 mi South 11.5 mph - N/A   Partly Cloudy
5:53 PM 75.0 °F - 63.0 °F 66% 29.96 in 10.0 mi South 9.2 mph - N/A   Partly Cloudy
6:53 PM 73.9 °F - 64.0 °F 71% 29.96 in 10.0 mi South 11.5 mph - N/A   Mostly Cloudy
7:53 PM 73.0 °F - 64.9 °F 76% 29.96 in 10.0 mi South 11.5 mph - N/A   Overcast
8:53 PM 73.0 °F - 66.0 °F 79% 29.96 in 10.0 mi SSE 13.8 mph - N/A   Overcast
9:53 PM 72.0 °F - 68.0 °F 87% 29.97 in 9.0 mi SSW 9.2 mph 23.0 mph 0.00 in Rain Light Rain
10:00 PM 71.6 °F - 68.0 °F 88% 29.98 in 2.5 mi WSW 8.1 mph - 0.12 in Rain Heavy Rain
10:09 PM 71.6 °F - 68.0 °F 88% 29.99 in 3.0 mi SW 4.6 mph - 0.13 in Rain Light Rain
10:20 PM 71.6 °F - 68.0 °F 88% 29.99 in 9.0 mi South 8.1 mph - 0.14 in Rain Light Rain
10:32 PM 71.6 °F - 68.0 °F 88% 29.99 in 10.0 mi South 12.7 mph 18.4 mph 0.14 in   Overcast
10:42 PM 71.6 °F - 69.8 °F 94% 29.99 in 10.0 mi WSW 5.8 mph - 0.14 in   Overcast
10:53 PM 71.1 °F - 69.1 °F 93% 29.97 in 10.0 mi WSW 4.6 mph - 0.14 in   Overcast
11:19 PM 69.8 °F - 68.0 °F 94% 29.96 in 10.0 mi SSE 10.4 mph - N/A   Mostly Cloudy
11:29 PM 69.8 °F - 68.0 °F 94% 29.96 in 10.0 mi South 8.1 mph - N/A   Scattered Clouds
11:53 PM 69.1 °F - 68.0 °F 96% 29.94 in 10.0 mi South 8.1 mph - N/A   Mostly Cloudy